Flag for U.S.A. Weather past 2 weeks in Temple, Texas, U.S.A.

Now
63 °F

Partly cloudy.


Feels Like: 63 °F
Forecast: 62 / 78 °F
Wind: 5 mph from Northeast

Location: Fort Hood AAF Airport

Current Time: Apr 18, 2015 at 3:24:32 AM

Latest Report: Apr 18, 2015 at 2:58 AM


Visibility: 10 mi

Pressure: 29.88 "Hg

Humidity: 98%

Dew point: 62 °F

Location of TempleLocation

Historic Weather in Temple — Graph

°F

Temple temperature yesterday

Maximum temperature yesterday: 73 °F (at 2:58 PM)
Minimum temperature yesterday: 64 °F (at 12:58 AM)
Average temperature yesterday: 67 °F

Past Weeks' High & Low Weather Summary

 TemperatureHumidityPressure
High87 °F (Apr 13, 3:58 PM)100% (Apr 5, 10:58 PM)30.34 "Hg (Apr 5, 10:58 PM)
Low49 °F (Apr 15, 6:58 AM)25% (Apr 13, 4:58 PM)29.73 "Hg (Apr 9, 5:58 AM)
Average68 °F76%29.95 "Hg
* Reported Apr 3 1:58 AM — Apr 18 1:58 AM, Temple, Weather by CustomWeather, © 2015

Note: Actual official high and low records may vary slightly from our data, if they occured in-between our weather recording intervals... More about our weather records

Advertising

Temple weather history for previous 24 hours

 ConditionsComfort  
Time TempWeatherWind HumidityBarometerVisibility
1:58 AM
Sat, Apr 18
63 °FMostly cloudy.2 mph97%29.90 "Hg10 mi
12:58 AM64 °FOvercast.5 mph97%29.91 "Hg10 mi
12:03 AM64 °FMostly cloudy.7 mph100%29.92 "Hg10 mi
11:58 PM
Fri, Apr 17
65 °FMostly cloudy.6 mph96%29.91 "Hg10 mi
10:58 PM65 °FLow clouds.2 mph96%29.90 "Hg10 mi
9:58 PM65 °FPassing clouds.13 mph95%29.84 "Hg10 mi
8:58 PM67 °FLight rain. Passing clouds.10 mph96%29.88 "Hg9 mi
7:58 PM67 °FLight rain. Fog.8 mph96%29.89 "Hg4 mi
6:58 PM68 °FThundershowers. Fog.3 mph95%29.90 "Hg5 mi
6:03 PM68 °FThundershowers. Fog.9 mph94%29.86 "Hg1 mi
4:59 PM72 °FLight rain. Overcast.5 mph78%29.92 "Hg9 mi
3:58 PM72 °FPartly sunny.6 mph77%29.92 "Hg10 mi
2:58 PM73 °FPassing clouds.10 mph75%29.90 "Hg10 mi
1:58 PM72 °FPassing clouds.12 mph75%29.92 "Hg8 mi
12:58 PM71 °FPartly sunny.7 mph76%29.96 "Hg10 mi
11:58 AM71 °FPartly sunny.10 mph75%29.98 "Hg10 mi
10:58 AM71 °FMore clouds than sun.10 mph74%29.99 "Hg10 mi
9:58 AM71 °FOvercast.8 mph75%29.98 "Hg10 mi
8:58 AM67 °FMore clouds than sun.13 mph86%29.96 "Hg10 mi
7:58 AM65 °FPassing clouds.13 mph94%29.93 "Hg9 mi
6:58 AM65 °FMostly cloudy.10 mph94%29.89 "Hg10 mi
5:58 AM65 °FLow clouds.9 mph94%29.89 "Hg10 mi
4:58 AM64 °FMostly cloudy.12 mph94%29.90 "Hg10 mi
3:58 AM64 °FLow clouds.13 mph95%29.91 "Hg8 mi
Weather by CustomWeather, © 2015

See weather overviewHow to use our weather pages